Wind_Speed
37 37 36 36 35 35 34 33 32 31 30 28 27 26 24 23 21 19 18 17 16 16 16 15 14 13 12 12 11 10 10 9 9 8 7 7 7 7 7 7 7 7
36 35 35 35 35 34 33 32 31 30 29 27 26 25 24 23 20 18 17 17 16 16 15 14 13 12 11 11 10 9 9 8 8 7 6 5 6 6 6 6 6 6
35 35 35 35 35 34 32 31 29 28 28 26 25 24 23 22 20 18 17 16 16 16 14 13 12 11 10 9 9 8 7 6 6 5 4 4 5 5 5 5 4 4
35 35 35 35 35 34 32 31 30 28 27 26 25 24 22 21 19 19 18 16 15 15 13 12 11 9 8 8 7 6 5 5 5 4 3 3 4 4 4 3 3 3
35 35 35 35 34 33 32 32 30 29 27 26 25 23 21 21 20 19 18 16 15 13 12 11 9 8 7 6 5 5 5 4 4 4 3 2 3 2 2 2 1 1
36 35 35 34 34 34 33 32 30 29 27 26 24 23 21 20 19 18 17 16 14 13 11 10 9 8 7 6 5 5 5 5 4 4 3 2 2 1 1 1 0 1
36 36 35 35 34 34 33 32 30 29 27 25 24 23 21 20 19 18 16 15 14 12 11 10 9 8 7 6 6 5 5 4 4 3 2 2 2 1 1 1 1 1
37 36 36 36 35 34 33 32 30 28 27 26 25 23 21 20 19 18 16 15 13 12 10 10 9 8 7 7 6 5 4 3 3 2 2 2 2 1 2 2 3 3
37 37 37 36 36 35 33 32 30 29 27 26 25 23 21 20 18 17 16 14 13 11 10 10 9 8 7 6 5 4 3 2 2 1 1 1 1 2 3 4 4 4
38 38 38 37 36 35 34 32 31 29 28 26 25 24 22 21 18 17 16 14 13 12 11 10 9 8 7 5 4 3 2 1 1 1 2 2 3 4 5 5 5 5
39 39 39 38 37 36 34 33 31 30 28 27 25 24 23 22 19 17 15 14 13 12 11 10 9 7 6 4 3 2 1 1 2 2 3 4 4 5 6 6 6 6
40 40 40 39 37 36 35 33 32 30 29 28 26 25 23 22 20 18 16 14 13 12 11 10 8 7 5 3 2 1 1 2 3 3 4 5 6 6 7 7 7 7
41 41 40 39 38 37 35 34 33 31 30 28 27 25 24 22 20 18 17 15 13 12 11 9 8 6 5 3 2 1 2 3 4 5 5 6 7 7 7 8 8 8
42 41 40 39 38 37 36 34 33 32 30 29 27 25 24 22 20 19 18 16 14 12 11 9 8 6 5 3 2 2 3 4 5 6 7 7 8 9 9 9 10 10
41 40 40 39 38 38 37 35 34 33 31 30 28 26 24 22 21 20 19 17 15 14 12 10 8 7 5 4 3 4 5 5 6 7 8 9 9 10 10 11 10 11
41 40 40 39 39 39 38 37 35 34 32 31 29 27 25 24 23 21 19 18 16 15 14 12 10 8 7 6 5 5 6 7 7 8 9 10 11 11 11 12 11 11
40 40 40 40 40 39 39 38 37 35 34 32 31 29 27 25 24 23 21 19 17 16 14 13 11 10 9 7 7 8 8 8 8 9 10 11 12 13 12 13 12 11
40 40 40 40 40 40 40 39 37 36 35 34 32 30 29 27 26 24 22 20 19 17 16 14 13 12 10 9 9 10 10 10 10 10 11 12 13 14 14 14 14 12
40 40 41 41 41 41 40 39 38 38 37 36 33 31 30 28 27 25 23 22 21 19 17 16 15 13 12 11 11 12 12 12 12 12 13 14 14 15 15 15 15 14
40 41 41 42 41 40 40 40 40 40 39 36 34 32 31 30 28 27 25 24 22 21 19 18 16 15 14 13 13 13 14 14 14 14 14 15 15 16 16 16 16 15
40 41 41 41 40 40 40 41 41 41 40 37 35 34 33 32 30 28 27 25 24 22 21 19 18 17 17 16 16 15 15 16 16 17 17 17 17 17 17 17 16 15
41 41 40 40 40 41 41 41 42 42 40 39 37 36 34 33 31 30 28 27 25 24 23 22 20 19 19 18 17 17 17 18 18 19 19 19 18 18 18 17 17 16
41 41 41 40 41 41 42 42 43 42 41 40 39 38 36 35 33 31 30 28 27 26 25 24 22 22 21 20 19 19 19 20 20 21 21 20 20 19 19 18 18 17
41 41 42 42 42 43 44 44 43 42 42 42 41 40 39 37 35 33 31 30 29 28 27 25 24 23 23 22 21 20 21 22 22 22 22 22 22 21 20 20 19 18
41 42 42 42 43 44 44 44 43 43 43 42 42 41 39 37 36 35 34 33 32 30 28 27 26 25 25 25 23 22 23 23 24 24 24 24 23 23 22 21 20 20
40 41 42 43 43 44 43 43 43 42 42 42 42 40 38 37 37 36 36 35 33 32 31 30 29 27 27 27 25 24 25 25 26 26 26 26 25 24 23 22 22 21
Wind_Direction
160 159 158 156 154 152 150 149 148 146 145 144 142 139 137 134 134 132 125 119 115 112 111 111 109 107 105 104 102 97 94 93 93 93 92 89 86 84 84 82 83 88
164 163 161 158 156 155 153 152 151 149 148 147 145 142 139 137 135 131 125 122 120 118 116 115 113 111 108 104 100 95 92 90 92 93 90 88 88 84 82 78 76 78
167 166 164 161 159 158 156 155 154 153 151 149 147 144 141 139 136 131 129 127 125 121 119 116 113 109 104 99 96 94 94 94 97 98 99 102 94 84 83 78 70 68
170 168 166 165 163 161 160 158 157 156 154 151 148 145 142 141 138 136 134 131 126 121 118 114 109 105 100 96 99 103 106 109 114 118 121 117 103 90 85 81 72 62
172 171 169 169 167 165 163 162 160 158 156 153 149 148 146 144 143 140 136 131 126 120 118 116 111 109 107 107 111 118 129 134 138 143 145 136 120 109 105 100 85 55
173 173 173 173 171 168 166 165 163 161 158 155 153 151 150 148 146 141 135 131 127 124 121 119 118 118 120 127 136 144 150 152 158 162 159 157 154 153 158 140 56 17
176 176 176 175 173 171 169 167 165 163 161 159 156 155 154 152 147 141 136 132 129 127 125 123 125 129 135 145 154 159 161 162 166 171 174 172 173 202 233 274 305 299
178 178 178 176 174 172 171 168 167 165 164 162 159 158 158 155 149 143 139 136 133 131 131 131 132 138 145 153 158 161 164 169 177 184 201 197 186 233 263 278 282 275
179 179 178 177 175 174 173 171 169 168 167 166 163 161 159 156 152 146 142 140 138 137 137 137 140 144 149 152 155 159 165 178 198 209 239 272 275 276 275 274 275 273
179 179 178 177 176 176 175 173 172 171 170 170 167 164 161 158 154 150 148 145 144 144 144 145 146 144 146 149 150 155 173 199 252 283 295 299 290 282 279 276 276 275
180 180 179 179 179 178 178 176 175 174 173 173 172 168 164 161 158 156 155 153 152 151 151 151 146 140 141 142 140 154 199 248 282 294 295 292 284 280 280 278 279 281
182 181 181 182 182 181 180 179 179 178 177 176 175 172 169 166 165 163 162 161 160 159 159 155 148 142 141 137 139 182 249 274 285 291 291 287 284 281 281 280 280 282
184 184 184 185 185 184 183 183 182 182 180 179 178 177 174 172 170 169 168 168 167 166 166 162 153 150 151 150 168 230 265 278 285 291 291 290 288 286 283 281 279 276
186 186 187 187 187 186 186 186 186 185 183 182 182 181 180 178 177 176 173 172 173 174 175 172 165 164 166 174 204 241 263 279 286 289 291 291 289 287 284 277 275 273
188 188 189 189 189 188 189 189 189 188 186 186 186 185 185 183 182 182 180 179 179 181 185 184 181 181 184 197 223 248 263 275 282 286 290 290 288 285 282 277 273 271
189 190 190 191 191 191 192 192 192 190 189 189 189 188 188 187 186 187 187 187 188 189 191 192 193 196 199 209 229 249 261 269 277 283 285 286 287 283 279 276 272 270
190 191 192 193 194 194 195 195 194 193 192 193 193 191 191 192 192 192 192 194 195 196 198 200 202 205 208 217 233 247 257 264 271 278 282 283 284 282 278 276 273 271
192 192 193 195 196 197 198 198 196 196 196 196 196 195 195 196 197 198 198 199 201 202 204 207 209 213 215 221 236 247 256 263 266 273 280 281 280 280 278 276 275 274
193 194 195 197 199 200 200 199 198 199 200 200 199 199 200 201 202 202 203 204 206 208 210 212 214 218 221 226 236 245 254 262 267 271 276 278 278 277 276 276 277 277
195 197 198 200 201 201 202 201 202 204 204 203 203 203 204 205 205 206 208 210 212 213 214 216 219 222 227 230 235 242 249 257 265 270 272 275 276 274 273 274 274 274
198 200 201 202 202 203 204 205 206 206 206 206 207 208 210 210 210 211 213 215 217 218 218 220 222 225 229 232 236 241 246 252 260 266 269 272 273 272 272 273 273 273
201 202 202 203 204 204 206 208 209 209 209 210 211 213 214 214 214 215 218 220 221 222 222 223 225 228 230 232 236 239 243 250 256 261 265 268 271 271 271 272 273 273
204 204 205 206 206 206 208 210 212 212 212 213 214 215 216 216 217 219 221 223 225 226 226 227 228 230 232 233 234 238 243 249 254 258 261 265 268 269 269 270 271 270
207 207 208 208 208 210 211 213 214 215 216 216 217 218 220 220 221 222 224 226 228 230 232 232 232 232 233 233 235 238 243 249 253 256 258 262 265 267 267 267 268 267
211 211 211 211 212 214 215 216 217 219 219 220 220 222 223 224 225 225 227 229 231 233 235 236 235 234 234 235 236 238 243 248 251 252 255 260 262 264 265 265 264 264
214 214 214 215 217 218 219 219 221 222 222 223 223 224 225 227 228 229 230 233 234 235 237 238 238 236 234 236 237 238 241 246 248 249 254 258 260 261 263 264 263 261
Height
861 862 864 865 867 868 869 871 872 874 875 877 878 880 881 883 884 885 885 886 887 888 889 891 892 893 893 894 894 894 895 896 896 897 898 898 899 899 899 899 899 899
860 862 863 865 866 868 869 871 872 874 875 877 878 879 881 882 883 884 885 886 887 889 890 891 892 893 893 893 894 894 894 895 896 897 897 898 898 898 898 898 898 897
859 861 862 864 865 867 869 871 873 874 876 877 878 879 880 881 883 884 885 886 887 889 890 891 891 892 892 892 893 893 894 895 896 896 897 897 897 897 897 897 897 897
859 860 862 863 864 866 868 870 872 874 875 877 878 879 879 881 882 884 885 886 887 888 889 890 890 891 891 892 893 893 894 894 895 895 896 896 896 896 896 896 896 896
858 860 861 863 864 865 867 869 871 873 875 876 877 878 879 881 882 883 884 885 886 887 888 889 889 890 890 891 892 893 894 894 894 895 895 895 895 894 894 895 895 895
857 859 861 862 863 864 866 868 870 872 873 875 876 877 879 881 882 882 883 884 885 886 887 887 888 889 890 891 892 892 893 893 894 894 894 893 893 893 893 894 894 894
856 858 860 861 863 864 865 867 869 871 872 874 875 877 878 880 881 881 882 883 884 885 886 886 887 888 889 890 891 891 892 892 892 892 892 892 892 892 892 892 893 893
854 856 858 860 862 863 864 866 868 870 871 872 874 876 878 879 879 879 880 881 882 884 885 886 886 887 888 889 890 890 890 891 891 890 890 890 890 891 891 891 892 892
853 855 857 859 860 862 863 865 866 868 870 871 873 874 876 877 877 878 879 880 881 883 884 884 885 886 887 888 888 889 889 889 889 889 889 889 889 889 890 890 890 891
852 853 855 857 859 860 862 863 865 867 869 870 871 873 874 875 876 876 877 879 880 882 883 883 884 885 885 886 886 887 887 887 887 887 887 888 888 888 889 889 889 889
850 851 853 855 857 859 860 862 864 865 867 868 870 871 872 872 874 875 875 877 878 880 881 882 882 883 884 884 884 885 885 885 885 886 886 886 887 887 887 887 887 888
847 849 851 853 854 857 859 861 862 863 865 866 868 869 870 870 871 873 874 875 877 879 880 880 880 881 881 882 882 883 883 883 884 884 884 885 885 885 885 885 886 886
844 846 848 850 852 854 857 859 860 862 863 864 866 867 867 868 869 871 872 874 875 877 878 879 878 879 879 880 880 881 881 882 882 883 883 883 883 883 883 884 884 884
842 844 846 848 850 852 855 857 858 860 861 863 864 865 865 866 867 869 870 872 874 875 877 877 877 877 877 878 878 879 879 880 880 881 881 881 881 881 881 882 882 882
840 843 845 847 849 850 853 854 856 858 859 861 862 863 864 865 866 867 868 870 871 873 875 875 875 875 875 875 876 876 877 878 878 878 878 878 879 879 879 879 880 880
837 840 842 844 846 848 850 852 854 855 857 859 859 861 862 863 864 865 866 867 869 870 872 872 872 873 873 873 874 874 875 876 876 876 876 876 876 877 877 877 878 877
835 837 840 842 844 846 848 849 851 853 855 856 857 858 860 860 862 863 864 865 867 868 869 870 870 871 871 871 871 872 873 873 873 873 873 874 874 874 875 875 875 875
832 834 837 839 841 843 845 846 849 851 853 854 854 856 857 858 859 860 862 863 864 865 866 867 868 868 868 869 869 870 870 870 871 871 871 872 872 872 872 872 872 872
829 831 834 836 838 840 842 844 847 848 850 851 852 853 854 855 857 858 859 861 861 862 864 864 865 866 866 866 867 867 867 867 868 868 868 869 869 869 870 870 869 869
826 828 831 833 835 837 839 841 844 845 847 848 849 851 851 852 854 855 856 858 858 860 861 861 862 863 863 864 864 865 865 864 864 865 865 866 866 866 867 866 866 866
823 825 828 830 832 835 836 838 840 842 844 846 846 847 848 849 851 852 853 855 856 857 858 858 859 860 860 861 861 862 862 862 862 862 862 863 863 863 863 863 863 863
820 823 825 828 830 832 833 835 837 838 841 843 843 844 845 847 848 849 850 852 853 854 854 855 856 857 857 858 858 859 859 859 859 859 859 859 859 859 860 859 859 859
817 820 822 824 826 828 829 831 833 835 838 839 840 841 842 843 844 846 847 848 849 850 851 852 853 853 854 855 855 856 856 855 856 856 856 856 856 856 856 856 856 856
814 817 819 820 822 823 825 827 830 832 834 835 836 837 837 839 841 843 844 845 845 846 847 848 850 851 851 851 852 852 852 852 852 852 852 852 852 852 852 852 852 852
812 814 815 817 819 820 822 824 827 829 831 832 833 834 835 837 838 839 840 841 842 843 844 845 846 847 847 848 848 849 848 848 848 849 848 848 848 848 848 848 848 848
809 811 813 814 815 817 819 822 824 826 828 829 830 831 833 834 835 836 837 837 838 839 840 841 842 843 844 844 844 845 844 844 844 844 844 844 844 844 844 843 844 844